Weather History for KE11 - January, 2013

Change the Weather History Date:

Saturday, January 5, 2013

  Actual Average (KMAF) Record (KMAF)
Temperature  
Mean Temperature 38 °F 43 °F  
Max Temperature 51 °F 57 °F 80 °F (1994)
Min Temperature 25 °F 30 °F 2 °F (1971)
Degree Days  
Heating Degree Days 27 22  
Month to date heating degree days 110  
Since 1 July heating degree days 1226  
Moisture  
Dew Point 29 °F    
Average Humidity 77    
Maximum Humidity 99    
Minimum Humidity 45    
Precipitation  
Precipitation 0.00 in 0.02 in 0.52 in (1958)
Month to date precipitation 0.07  
Year to date precipitation 0.07  
Snow  
Snow 0.00 in - - ()
Month to date snowfall  
Since 1 July snowfall  
Snow Depth -    
Sea Level Pressure  
Sea Level Pressure 30.24 in    
Wind  
Wind Speed 8 mph (West)    
Max Wind Speed 13 mph    
Max Gust Speed 18 mph    
Visibility 9 miles    
Events      
T = Trace of Precipitation, MM = Missing Value Source: NWS Daily Summary

Daily Weather History Graph

Daily Weather History Graph

Search for Another Location

Airport or City:

Trip Planner

Search our weather history database for the weather conditions in past years. The results will help you decide how hot, cold, wet, or windy it might be!

Date:

Astronomy

Jan. 05, 2013 Rise Set
Actual Time 7:52 AM CST 5:59 PM CST
Civil Twilight 7:25 AM CST 6:26 PM CST
Nautical Twilight 6:54 AM CST 6:56 PM CST
Astronomical Twilight 6:25 AM CST 7:26 PM CST
Moon 1:12 AM CST (1/5) 12:40 PM CST (1/5)
Length of Visible Light 11h 01m
Length of Day
10h 07m
Last Quarter, 44% of the Moon is Illuminated
Jan 5
Last Quarter
Jan 11
New
Jan 18
First Quarter
Jan 26
Full
Feb 3
Last Quarter

Hourly Weather History & Observations

Time (CST) Temp. Windchill Dew Point Humidity Pressure Visibility Wind Dir Wind Speed Gust Speed Precip Events Conditions
12:15 AM 29.8 °F 23.0 °F 28.2 °F 94% 30.26 in 10.0 mi SW 6.9 mph - N/A   Mostly Cloudy
12:35 AM 30.0 °F 20.5 °F 28.4 °F 94% 30.25 in 10.0 mi SW 11.5 mph - N/A   Overcast
12:55 AM 29.7 °F 22.0 °F 28.4 °F 95% 30.25 in 10.0 mi SW 8.1 mph - N/A   Overcast
1:15 AM 29.8 °F 20.3 °F 28.9 °F 96% 30.25 in 7.0 mi SW 11.5 mph 18.4 mph N/A   Overcast
1:35 AM 30.0 °F 21.1 °F 29.1 °F 96% 30.24 in 7.0 mi SW 10.4 mph - N/A   Overcast
1:55 AM 30.2 °F 20.8 °F 29.3 °F 96% 30.24 in 7.0 mi SW 11.5 mph - N/A   Overcast
2:15 AM 30.6 °F 20.7 °F 29.5 °F 96% 30.24 in 7.0 mi SW 12.7 mph 18.4 mph N/A   Overcast
2:35 AM 30.2 °F 21.3 °F 29.3 °F 96% 30.24 in 7.0 mi SW 10.4 mph - N/A   Overcast
2:55 AM 29.8 °F 20.9 °F 28.9 °F 96% 30.23 in 7.0 mi WSW 10.4 mph - N/A   Overcast
3:15 AM 29.3 °F 19.6 °F 28.8 °F 98% 30.23 in 7.0 mi WSW 11.5 mph - N/A   Overcast
3:35 AM 29.3 °F 20.2 °F 28.9 °F 99% 30.23 in 5.0 mi WSW 10.4 mph - N/A   Overcast
3:55 AM 29.1 °F 20.6 °F 28.4 °F 97% 30.23 in 7.0 mi SW 9.2 mph - N/A   Overcast
4:15 AM 28.2 °F 21.0 °F 27.7 °F 98% 30.23 in 7.0 mi SW 6.9 mph - N/A   Scattered Clouds
4:35 AM 28.0 °F 21.7 °F 27.3 °F 97% 30.23 in 10.0 mi West 5.8 mph - N/A   Clear
4:55 AM 27.5 °F 19.3 °F 26.6 °F 96% 30.22 in 7.0 mi SW 8.1 mph - N/A   Scattered Clouds
5:15 AM 27.1 °F 19.7 °F 26.4 °F 97% 30.21 in 7.0 mi SW 6.9 mph - N/A   Clear
5:35 AM 26.6 °F 22.6 °F 25.7 °F 96% 30.20 in 7.0 mi WSW 3.5 mph - N/A   Clear
5:55 AM 27.0 °F 19.5 °F 25.9 °F 96% 30.21 in 10.0 mi WSW 6.9 mph - N/A   Clear
6:15 AM 26.6 °F 19.1 °F 25.5 °F 96% 30.21 in 10.0 mi West 6.9 mph - N/A   Clear
6:35 AM 26.6 °F 18.2 °F 25.3 °F 95% 30.21 in 10.0 mi WSW 8.1 mph - N/A   Clear
6:55 AM 26.4 °F 17.3 °F 24.8 °F 94% 30.21 in 10.0 mi WSW 9.2 mph - N/A   Clear
7:15 AM 26.4 °F 18.9 °F 24.6 °F 93% 30.23 in 10.0 mi West 6.9 mph - N/A   Clear
7:35 AM 25.7 °F 19.0 °F 24.3 °F 94% 30.23 in 10.0 mi West 5.8 mph - N/A   Clear
7:55 AM 25.5 °F 16.9 °F 23.9 °F 94% 30.24 in 10.0 mi West 8.1 mph - N/A   Clear
8:15 AM 26.1 °F 16.2 °F 23.9 °F 92% 30.24 in 10.0 mi West 10.4 mph - N/A   Clear
8:35 AM 26.8 °F 16.5 °F 24.3 °F 90% 30.25 in 10.0 mi West 11.5 mph - N/A   Clear
8:55 AM 27.9 °F 17.8 °F 24.6 °F 88% 30.25 in 10.0 mi West 11.5 mph - N/A   Clear
9:15 AM 29.1 °F 21.3 °F 24.8 °F 84% 30.26 in 10.0 mi West 8.1 mph - N/A   Clear
9:55 AM 31.5 °F 25.8 °F 26.1 °F 80% 30.26 in 10.0 mi West 5.8 mph - N/A   Clear
10:15 AM 32.2 °F 25.8 °F 26.6 °F 80% 30.27 in 10.0 mi West 6.9 mph - N/A   Clear
10:55 AM 35.2 °F 29.5 °F 27.7 °F 74% 30.27 in 10.0 mi WSW 6.9 mph - N/A   Clear
11:15 AM 36.1 °F 30.6 °F 28.2 °F 73% 30.26 in 10.0 mi WSW 6.9 mph - N/A   Clear
11:55 AM 40.1 °F 35.3 °F 29.5 °F 66% 30.25 in 10.0 mi West 6.9 mph - N/A   Clear
12:15 PM 41.2 °F 38.2 °F 29.3 °F 63% 30.25 in 10.0 mi West 4.6 mph - N/A   Clear
12:35 PM 43.2 °F 39.0 °F 30.0 °F 60% 30.24 in 10.0 mi West 6.9 mph - N/A   Clear
12:55 PM 44.4 °F 42.0 °F 29.8 °F 57% 30.23 in 10.0 mi West 4.6 mph - N/A   Clear
1:15 PM 45.5 °F 43.2 °F 30.2 °F 55% 30.21 in 10.0 mi West 4.6 mph - N/A   Clear
1:35 PM 46.6 °F - 30.2 °F 53% 30.21 in 10.0 mi West 5.8 mph - N/A   Clear
1:55 PM 47.7 °F - 29.1 °F 49% 30.20 in 10.0 mi WNW 6.9 mph - N/A   Clear
2:15 PM 48.7 °F - 29.3 °F 47% 30.20 in 10.0 mi West 4.6 mph - N/A   Clear
2:35 PM 49.3 °F - 29.8 °F 47% 30.19 in 10.0 mi NNW 3.5 mph - N/A   Clear
2:55 PM 50.0 °F - 29.5 °F 45% 30.19 in 10.0 mi WSW 5.8 mph - N/A   Clear
3:15 PM 50.9 °F - 30.2 °F 45% 30.20 in 10.0 mi West 3.5 mph - N/A   Clear
3:35 PM 50.9 °F - 30.7 °F 46% 30.20 in 10.0 mi WSW 8.1 mph - N/A   Clear
3:55 PM 50.7 °F - 30.4 °F 46% 30.20 in 10.0 mi WSW 4.6 mph - N/A   Clear
4:15 PM 51.1 °F - 31.1 °F 46% 30.21 in 10.0 mi West 6.9 mph - N/A   Clear
4:55 PM 50.2 °F - 31.8 °F 49% 30.21 in 10.0 mi West 8.1 mph - N/A   Clear
5:15 PM 49.5 °F - 32.0 °F 51% 30.22 in 10.0 mi West 6.9 mph - N/A   Clear
5:35 PM 48.6 °F - 32.4 °F 54% 30.23 in 10.0 mi West 4.6 mph - N/A   Clear
5:55 PM 46.9 °F - 32.2 °F 57% 30.23 in 10.0 mi Calm Calm - N/A   Clear
6:15 PM 45.5 °F 44.2 °F 32.5 °F 61% 30.24 in 10.0 mi West 3.5 mph - N/A   Clear
6:35 PM 43.9 °F 41.3 °F 33.4 °F 67% 30.24 in 10.0 mi WSW 4.6 mph - N/A   Clear
6:55 PM 43.0 °F 41.3 °F 33.1 °F 68% 30.25 in 10.0 mi WSW 3.5 mph - N/A   Clear
7:15 PM 41.7 °F 38.8 °F 32.7 °F 70% 30.25 in 10.0 mi WSW 4.6 mph - N/A   Clear
7:55 PM 41.0 °F 39.0 °F 32.0 °F 70% 30.27 in 10.0 mi West 3.5 mph - N/A   Clear
8:15 PM 39.6 °F 35.4 °F 31.1 °F 72% 30.28 in 10.0 mi West 5.8 mph - N/A   Clear
8:35 PM 39.2 °F 35.0 °F 30.6 °F 71% 30.28 in 10.0 mi West 5.8 mph - N/A   Clear
8:55 PM 38.3 °F 33.9 °F 30.2 °F 73% 30.28 in 10.0 mi West 5.8 mph - N/A   Clear
9:15 PM 37.4 °F 32.8 °F 29.8 °F 74% 30.29 in 10.0 mi West 5.8 mph - N/A   Clear
9:35 PM 36.7 °F 32.9 °F 29.8 °F 76% 30.29 in 10.0 mi West 4.6 mph - N/A   Clear
9:55 PM 36.0 °F 32.1 °F 29.8 °F 78% 30.30 in 10.0 mi West 4.6 mph - N/A   Clear
10:15 PM 35.8 °F 31.9 °F 29.8 °F 79% 30.31 in 10.0 mi WNW 4.6 mph - N/A   Clear
10:35 PM 35.1 °F 29.3 °F 29.7 °F 81% 30.32 in 10.0 mi WNW 6.9 mph - N/A   Clear
10:55 PM 34.7 °F 30.6 °F 30.0 °F 83% 30.32 in 10.0 mi NW 4.6 mph - N/A   Clear
11:15 PM 34.0 °F 27.2 °F 28.4 °F 80% 30.32 in 10.0 mi NNW 8.1 mph - N/A   Clear
11:35 PM 32.7 °F 26.4 °F 25.9 °F 76% 30.34 in 10.0 mi North 6.9 mph - N/A   Clear
11:55 PM 32.0 °F 26.4 °F 24.8 °F 75% 30.34 in 10.0 mi North 5.8 mph - N/A   Clear